TimePST,TemperatureF,Dew PointF,Humidity,Sea Level PressureIn,VisibilityMPH,Wind Direction,Wind SpeedMPH,Gust SpeedMPH,PrecipitationIn,Events,Conditions,WindDirDegrees,DateUTC
12:53 AM,6.1,3.0,87,30.51,10.0,Calm,Calm,-,N/A,,Clear,0,2013-01-20 08:53:00
1:53 AM,10.9,8.1,88,30.48,10.0,NNW,4.6,-,N/A,,Clear,330,2013-01-20 09:53:00
2:53 AM,6.1,3.0,87,30.51,10.0,Calm,Calm,-,N/A,,Clear,0,2013-01-20 10:53:00
4:53 AM,1.0,-2.0,87,30.53,9.0,Calm,Calm,-,N/A,,Clear,0,2013-01-20 12:53:00
5:53 AM,1.0,-2.0,87,30.55,10.0,Calm,Calm,-,N/A,,Clear,0,2013-01-20 13:53:00
6:53 AM,1.9,-0.9,88,30.56,8.0,Calm,Calm,-,N/A,,Clear,0,2013-01-20 14:53:00
7:53 AM,1.9,-2.9,80,30.58,10.0,Calm,Calm,-,N/A,,Scattered Clouds,0,2013-01-20 15:53:00
8:53 AM,6.1,3.9,91,30.59,10.0,Calm,Calm,-,N/A,,Scattered Clouds,0,2013-01-20 16:53:00
9:53 AM,14.0,10.9,88,30.58,10.0,Calm,Calm,-,N/A,,Partly Cloudy,0,2013-01-20 17:53:00
10:53 AM,19.0,12.9,77,30.55,10.0,Calm,Calm,-,N/A,,Partly Cloudy,0,2013-01-20 18:53:00
11:53 AM,23.0,12.9,65,30.52,10.0,Calm,Calm,-,N/A,,Partly Cloudy,0,2013-01-20 19:53:00
12:53 PM,27.0,14.0,58,30.47,10.0,Calm,Calm,-,N/A,,Partly Cloudy,0,2013-01-20 20:53:00
1:53 PM,28.9,15.1,56,30.43,10.0,Calm,Calm,-,N/A,,Clear,0,2013-01-20 21:53:00
2:53 PM,34.0,15.1,46,30.43,10.0,Calm,Calm,-,N/A,,Clear,0,2013-01-20 22:53:00
3:53 PM,33.1,15.1,48,30.44,10.0,Calm,Calm,-,N/A,,Clear,0,2013-01-20 23:53:00
4:53 PM,28.9,15.1,56,30.46,10.0,Calm,Calm,-,N/A,,Clear,0,2013-01-21 00:53:00
5:53 PM,19.0,12.9,77,30.49,10.0,Calm,Calm,-,N/A,,Clear,0,2013-01-21 01:53:00
6:53 PM,15.1,10.9,84,30.50,7.0,Calm,Calm,-,N/A,,Clear,0,2013-01-21 02:53:00
7:53 PM,9.0,6.1,88,30.52,7.0,Calm,Calm,-,N/A,,Clear,0,2013-01-21 03:53:00
8:53 PM,9.0,5.0,84,30.51,7.0,Calm,Calm,-,N/A,,Clear,0,2013-01-21 04:53:00
9:53 PM,7.0,3.0,84,30.50,7.0,ENE,3.5,-,N/A,,Clear,70,2013-01-21 05:53:00
10:53 PM,10.0,6.1,84,30.49,10.0,East,3.5,-,N/A,,Clear,100,2013-01-21 06:53:00
11:53 PM,6.1,3.0,87,30.48,10.0,Calm,Calm,-,N/A,,Clear,0,2013-01-21 07:53:00